Zurück zum Katalog

SES 5

AktivKommunikationGEO
NORAD 38652·PAYLOAD·🇱🇺 Luxembourg

Gestartet Jul 9, 2012 von Baikonur Cosmodrome

Loading…

TLE

AktuellSource: CelesTrak SupGP

Epoche: Sep 13, 2026, 23:30 UTC

1 38652C 12036A   26256.97916667  .00000119  00000+0  00000+0 0  2563
2 38652   0.0003  51.9581 0002076 115.5077 182.9791  1.00272021    12

Verfolge SES 5 in Echtzeit mit AllMySat

Download on the App Store